Flag for Ukraine Weather past 2 weeks in Odesa, Ukraine

Now
32 °F

Low clouds.


Feels Like: 24 °F
Forecast: 35 / 39 °F
Wind: 10 mph from North

Location: Odesa Airport

Current Time: Jan 27, 2015 at 4:01:22 AM

Latest Report: Jan 27, 2015 at 3:30 AM


Visibility: N/A

Pressure: 30.09 "Hg

Humidity: 93%

Dew point: 30 °F

Location of OdesaLocation

Historic Weather in Odesa — Graph

°F

Odesa temperature yesterday

Maximum temperature yesterday: 36 °F (at 12:00 AM)
Minimum temperature yesterday: 34 °F (at 3:30 AM)
Average temperature yesterday: 35 °F

Past Weeks' High & Low Weather Summary

 TemperatureHumidityPressure
High41 °F (Jan 18, 10:30 AM)100% (Jan 12, 3:00 AM)30.33 "Hg (Jan 12, 3:00 AM)
Low23 °F (Jan 13, 6:00 AM)60% (Jan 13, 11:00 AM)29.77 "Hg (Jan 12, 3:00 AM)
Average35 °F93%30.11 "Hg
* Reported Jan 12 3:00 AM — Jan 27 3:00 AM, Odesa, Weather by CustomWeather, © 2014

Note: Actual official high and low records may vary slightly from our data, if they occured in-between our weather recording intervals... More about our weather records

Advertising

Odesa weather history for previous 24 hours

 ConditionsComfort  
Time TempWeatherWind HumidityBarometerVisibility
3:00 AM
Jan 27
32 °FPassing clouds.6 mph93%30.09 "HgN/A
2:30 AM32 °FPassing clouds.6 mph93%30.12 "HgN/A
2:00 AM32 °FPassing clouds.3 mph100%30.12 "HgN/A
1:30 AM34 °FMostly cloudy.3 mph93%30.12 "HgN/A
1:00 AM34 °FLow clouds.6 mph93%30.12 "HgN/A
12:30 AM34 °FMostly cloudy.6 mph93%30.12 "HgN/A
12:00 AM34 °FMostly cloudy.6 mph93%30.12 "HgN/A
11:30 PM
Jan 26
34 °FMostly cloudy.6 mph93%30.12 "HgN/A
11:00 PM36 °FMostly cloudy.6 mph93%30.15 "HgN/A
10:30 PM36 °FMostly cloudy.8 mph93%30.15 "HgN/A
10:00 PM36 °FLow clouds.8 mph93%30.12 "HgN/A
9:30 PM36 °FLight rain. Low clouds.8 mph93%30.15 "HgN/A
9:00 PM36 °FLight rain. Fog.6 mph93%30.15 "Hg2 mi
8:30 PM36 °FLight rain. Fog.6 mph93%30.15 "Hg2 mi
8:03 PM36 °FLight rain. Fog.3 mph93%30.12 "Hg2 mi
8:00 PM36 °FLight rain. Fog.3 mph93%30.12 "Hg2 mi
7:30 PM36 °FLight rain. Fog.3 mph93%30.12 "Hg2 mi
7:00 PM36 °FMostly cloudy.8 mph93%30.12 "HgN/A
6:30 PM36 °FMostly cloudy.8 mph93%30.12 "HgN/A
6:00 PM36 °FLow clouds.8 mph100%30.12 "HgN/A
5:30 PM36 °FLow clouds.6 mph100%30.12 "HgN/A
5:00 PM36 °FLight rain. Low clouds.6 mph100%30.12 "HgN/A
4:30 PM36 °FLight rain. Low clouds.8 mph100%30.12 "HgN/A
4:00 PM36 °FLight rain. Low clouds.8 mph100%30.12 "Hg3 mi
3:30 PM36 °FLight rain. Fog.8 mph100%30.09 "HgN/A
3:00 PM36 °FLight rain. Fog.6 mph100%30.12 "Hg3 mi
2:30 PM36 °FLight rain. Fog.8 mph100%30.12 "Hg2 mi
2:00 PM36 °FRain. Fog.8 mph100%30.12 "Hg1 mi
1:48 PM36 °FLight rain. Fog.6 mph100%30.12 "Hg1 mi
1:30 PM36 °FLight rain. Fog.6 mph100%30.12 "Hg1 mi
1:00 PM36 °FFog.6 mph100%30.12 "Hg0 mi
12:30 PM36 °FFog.6 mph100%30.12 "Hg0 mi
12:00 PM36 °FDrizzle. Fog.3 mph100%30.12 "Hg0 mi
11:30 AM36 °FDrizzle. Fog.3 mph100%30.12 "Hg0 mi
11:00 AM36 °FDrizzle. Fog.3 mph100%30.12 "Hg0 mi
10:30 AM36 °FDrizzle. Fog.6 mph93%30.12 "Hg0 mi
10:00 AM36 °FFog.6 mph93%30.12 "Hg0 mi
9:30 AM36 °FFog.3 mph93%30.12 "Hg0 mi
9:00 AM36 °FFog.6 mph93%30.09 "Hg0 mi
8:30 AM34 °FFog.1 mph100%30.09 "Hg0 mi
8:03 AM34 °FFog.No wind100%30.12 "Hg1 mi
8:00 AM34 °FFog.No wind100%30.12 "Hg1 mi
7:30 AM34 °FFog.3 mph100%30.09 "Hg0 mi
7:03 AM34 °FFog.3 mph100%30.09 "Hg0 mi
7:00 AM34 °FFog.3 mph100%30.09 "Hg0 mi
6:30 AM34 °FFog.1 mph100%30.09 "Hg0 mi
6:02 AM34 °FFog.3 mph100%30.07 "Hg0 mi
6:00 AM34 °FFog.3 mph100%30.07 "Hg0 mi
5:30 AM34 °FFog.6 mph100%30.07 "Hg0 mi
5:00 AM34 °FFog.6 mph100%30.07 "Hg0 mi
4:30 AM34 °FFog.6 mph100%30.07 "Hg0 mi
4:00 AM34 °FFog.8 mph100%30.07 "Hg0 mi
Weather by CustomWeather, © 2014

See weather overviewHow to use our weather pages